Skip Page Navigation
NASA JPL Caltech
NASA Logo - Jet Propulsion Laboratory + View the NASA Portal
+ Center for Near-Earth Object Studies
JPL Home Earth Solar System Stars & Galaxies Technology
JPL Solar System Dynamics
BODIES ORBITS EPHEMERIDES TOOLS PHYSICAL DATA DISCOVERY FAQ SITE MAP
JPL Small-Body Database Browser
Search: [ help ]  
469098 (2015 CJ33)
Classification: Main-belt Asteroid          SPK-ID: 2469098
Ephemeris | Orbit Diagram | Orbital Elements | Mission Design | Physical Parameters | Discovery Circumstances | Close-Approach Data ]

[ show orbit diagram ]
Orbital Elements at Epoch 2459000.5 (2020-May-31.0) TDB
Reference: JPL 10 (heliocentric ecliptic J2000)
 Element Value Uncertainty (1-sigma)   Units 
e .1411031214170834 6.2693e-08  
a 3.180247814258478 7.0855e-08 au
q 2.73150492078675 1.946e-07 au
i 5.978171836165093 7.0912e-06 deg
node 127.312988408456 6.8462e-05 deg
peri 30.78158074287111 7.4278e-05 deg
M 326.6042028572189 3.2642e-05 deg
tp 2459192.667165669900
(2020-Dec-09.16716567)
0.00019207 TDB
period 2071.523531700391
5.67
6.923e-05
1.895e-07
d
yr
n .1737851366354006 5.8078e-09 deg/d
Q 3.628990707730205 8.0853e-08 au
  Orbit Determination Parameters
   # obs. used (total)      124  
   data-arc span      6623 days (18.13 yr)  
   first obs. used      2000-08-27  
   last obs. used      2018-10-15  
   planetary ephem.      DE431  
   SB-pert. ephem.      SB431-N16  
   condition code      0  
   norm. resid. RMS      .68817  
   source      ORB  
   producer      Otto Matic  
   solution date      2018-Oct-31 05:39:21  

Additional Information
 Earth MOID = 1.7432 au 
 Jupiter MOID = 1.36893 au 
 T_jup = 3.176 
[ show covariance matrix ]

Ephemeris | Orbit Diagram | Orbital Elements | Mission Design | Physical Parameters | Discovery Circumstances | Close-Approach Data ]

Physical Parameter Table
Parameter Symbol Value Units Sigma Reference Notes
absolute magnitude H 16.3   n/a MPO460742  

469098 (2015 CJ33)          Discovered 2007-Oct-15 by Mt. Lemmon Survey at Mount Lemmon
Reference: Last Updated: 2016-06-21

[ show close-approach data ]
Alternate Designations
 2015 CJ33 = 2007 TG402 = 2010 HN107 = 2010 JU157 
Ephemeris | Orbit Diagram | Orbital Elements | Mission Design | Physical Parameters | Discovery Circumstances | Close-Approach Data ]
ABOUT SSD CREDITS/AWARDS PRIVACY/COPYRIGHT GLOSSARY LINKS
FirstGov 2020-Oct-02 00:02 UT
(server date/time)  
NASA Home Page
Site Manager:   Ryan S. Park
Webmaster  Alan B. Chamberlin